Weather History for Adana Incirlik AFB, Turkey

Change the Weather History Date:

Tuesday, January 29, 2013

  Actual Average Record
Temperature  
Mean Temperature 50 °F -  
Max Temperature 62 °F 61 °F 64 °F (2001)
Min Temperature 37 °F 44 °F 28 °F (1997)
Degree Days  
Heating Degree Days 16    
Moisture  
Dew Point 39 °F    
Average Humidity 72    
Maximum Humidity 100    
Minimum Humidity 31    
Precipitation  
Precipitation 0.00 in - - ()
Sea Level Pressure  
Sea Level Pressure 29.82 in    
Wind  
Wind Speed 5 mph ()    
Max Wind Speed 18 mph    
Max Gust Speed -    
Visibility 6.2 miles    
Events      
Averages and records for this station are not official NWS values.
T = Trace of Precipitation, MM = Missing Value Source: Averaged Metar Reports

Daily Weather History Graph

Daily Weather History Graph

Search for Another Location

Airport:

Trip Planner

Search our weather history database for the weather conditions in past years. The results will help you decide how hot, cold, wet, or windy it might be!

Date:

Astronomy

Jan. 29, 2013 Rise Set
Actual Time 6:43 AM EET 5:00 PM EET
Civil Twilight 6:15 AM EET 5:27 PM EET
Nautical Twilight 5:44 AM EET 5:58 PM EET
Astronomical Twilight 5:13 AM EET 6:29 PM EET
Moon 7:29 PM EET (1/29) 7:33 AM EET (1/29)
Length of Visible Light 11h 11m
Length of Day
10h 16m
Waning Gibbous, 95% of the Moon is Illuminated
Jan 29
Waning Gibbous
Feb 3
Last Quarter
Feb 10
New
Feb 17
First Quarter
Feb 25
Full

Hourly Weather History & Observations

Time (EET) Temp. Windchill Dew Point Humidity Pressure Visibility Wind Dir Wind Speed Gust Speed Precip Events Conditions
12:20 AM 44.6 °F - 44.6 °F 100% 29.80 in 6.2 mi NE 2.3 mph - N/A   Mostly Cloudy
12:50 AM 42.8 °F 40.1 °F 42.8 °F 100% 29.80 in 6.2 mi North 4.6 mph - N/A   Scattered Clouds
1:20 AM 42.8 °F 40.1 °F 41.0 °F 93% 29.80 in 6.2 mi NNE 4.6 mph - N/A   Scattered Clouds
1:50 AM 42.8 °F 38.6 °F 41.0 °F 93% 29.80 in 6.2 mi NNE 6.9 mph - N/A   Scattered Clouds
2:00 AM 43 °F - 42 °F 94% 29.81 in 6 mi NNE 6.9 mph - -   Scattered Clouds
2:20 AM 41.0 °F - 41.0 °F 100% 29.80 in 6.2 mi East 2.3 mph - N/A   Scattered Clouds
2:50 AM 42.8 °F 40.1 °F 41.0 °F 93% 29.80 in 6.2 mi NE 4.6 mph - N/A   Scattered Clouds
3:20 AM 41.0 °F 39.0 °F 41.0 °F 100% 29.80 in 6.2 mi North 3.5 mph - N/A   Scattered Clouds
3:50 AM 41.0 °F 39.0 °F 41.0 °F 100% 29.80 in 6.2 mi North 3.5 mph - N/A   Scattered Clouds
4:20 AM 41.0 °F 38.0 °F 41.0 °F 100% 29.80 in 6.2 mi NNE 4.6 mph - N/A   Scattered Clouds
4:50 AM 39.2 °F 34.2 °F 37.4 °F 93% 29.80 in 6.2 mi NNE 6.9 mph - N/A   Scattered Clouds
5:20 AM 39.2 °F 34.2 °F 37.4 °F 93% 29.80 in 6.2 mi NE 6.9 mph - N/A   Scattered Clouds
5:50 AM 39.2 °F 35.0 °F 37.4 °F 93% 29.80 in 6.2 mi NNE 5.8 mph - N/A   Scattered Clouds
6:20 AM 39.2 °F 34.2 °F 39.2 °F 100% 29.80 in 6.2 mi ENE 6.9 mph - N/A   Partly Cloudy
6:50 AM 39.2 °F 35.9 °F 39.2 °F 100% 29.80 in 6.2 mi ENE 4.6 mph - N/A   Partly Cloudy
7:20 AM 39.2 °F 34.2 °F 39.2 °F 100% 29.80 in 6.2 mi NNE 6.9 mph - N/A   Partly Cloudy
7:50 AM 42.8 °F 38.0 °F 42.8 °F 100% 29.80 in 6.2 mi NNE 8.1 mph - N/A   Partly Cloudy
8:00 AM 43 °F - 42 °F 95% 29.82 in 6 mi NNE 8.1 mph - -   Scattered Clouds
8:20 AM 46.4 °F 41.9 °F 46.4 °F 100% 29.83 in 6.2 mi NNE 9.2 mph - N/A   Partly Cloudy
8:50 AM 50.0 °F - 48.2 °F 94% 29.83 in 6.2 mi NE 6.9 mph - N/A   Scattered Clouds
9:20 AM 53.6 °F - 46.4 °F 77% 29.83 in 6.2 mi ENE 4.6 mph - N/A   Scattered Clouds
9:50 AM 55.4 °F - 46.4 °F 72% 29.83 in 6.2 mi ENE 8.1 mph - N/A   Partly Cloudy
10:20 AM 57.2 °F - 46.4 °F 67% 29.83 in 6.2 mi ENE 5.8 mph - N/A   Scattered Clouds
10:50 AM 59.0 °F - 46.4 °F 63% 29.83 in 6.2 mi East 6.9 mph - N/A   Scattered Clouds
11:20 AM 59.0 °F - 48.2 °F 67% 29.80 in 6.2 mi East 6.9 mph - N/A   Partly Cloudy
11:50 AM 59.0 °F - 46.4 °F 63% 29.80 in 6.2 mi East 4.6 mph - N/A   Partly Cloudy
12:20 PM 60.8 °F - 48.2 °F 63% 29.80 in 6.2 mi ENE 6.9 mph - N/A   Partly Cloudy
12:50 PM 60.8 °F - 46.4 °F 59% 29.80 in 6.2 mi North 3.5 mph - N/A   Partly Cloudy
1:20 PM 60.8 °F - 42.8 °F 52% 29.80 in 6.2 mi NNE 8.1 mph - N/A   Partly Cloudy
1:50 PM 60.8 °F - 42.8 °F 52% 29.80 in 6.2 mi North 3.5 mph - N/A   Partly Cloudy
2:00 PM 61 °F - 42 °F 38% 29.81 in 6 mi North 3.5 mph - -   Scattered Clouds
2:20 PM 60.8 °F - 42.8 °F 52% 29.80 in 6.2 mi ENE 6.9 mph - N/A   Partly Cloudy
2:50 PM 60.8 °F - 32.0 °F 34% 29.80 in 6.2 mi NNW 13.8 mph - N/A   Partly Cloudy
3:20 PM 60.8 °F - 30.2 °F 31% 29.80 in 6.2 mi North 18.4 mph - N/A   Mostly Cloudy
3:50 PM 59.0 °F - 28.4 °F 31% 29.80 in 6.2 mi North 12.7 mph - N/A   Mostly Cloudy
4:20 PM 57.2 °F - 32.0 °F 38% 29.83 in 6.2 mi NNE 8.1 mph - N/A   Mostly Cloudy
4:50 PM 55.4 °F - 30.2 °F 38% 29.83 in 6.2 mi North 11.5 mph - N/A   Mostly Cloudy
5:20 PM 53.6 °F - 32.0 °F 44% 29.83 in 6.2 mi NNE 6.9 mph - N/A   Mostly Cloudy
5:50 PM 51.8 °F - 35.6 °F 54% 29.83 in 6.2 mi NNE 10.4 mph - N/A   Mostly Cloudy
6:20 PM 53.6 °F - 30.2 °F 41% 29.83 in 6.2 mi North 8.1 mph - N/A   Mostly Cloudy
6:50 PM 51.8 °F - 30.2 °F 44% 29.86 in 6.2 mi North 9.2 mph - N/A   Mostly Cloudy
7:20 PM 50.0 °F - 28.4 °F 43% 29.86 in 6.2 mi NE 5.8 mph - N/A   Mostly Cloudy
7:50 PM 48.2 °F - 33.8 °F 58% 29.86 in 6.2 mi NE 5.8 mph - N/A   Mostly Cloudy
8:00 PM 48 °F - 34 °F 47% 29.87 in 6 mi NE 5.8 mph - -   Partly Cloudy
8:20 PM 44.6 °F 40.7 °F 37.4 °F 76% 29.86 in 6.2 mi NE 6.9 mph - N/A   Mostly Cloudy
8:50 PM 46.4 °F 45.2 °F 33.8 °F 62% 29.86 in 6.2 mi ENE 3.5 mph - N/A   Scattered Clouds
9:20 PM 44.6 °F 43.1 °F 35.6 °F 71% 29.89 in 6.2 mi East 3.5 mph - N/A   Scattered Clouds
9:50 PM 46.4 °F 45.2 °F 33.8 °F 62% 29.89 in 6.2 mi NE 3.5 mph - N/A   Scattered Clouds
10:20 PM 44.6 °F 42.2 °F 37.4 °F 76% 29.86 in 6.2 mi NE 4.6 mph - N/A   Scattered Clouds
10:50 PM 44.6 °F 41.4 °F 37.4 °F 76% 29.89 in 6.2 mi East 5.8 mph - N/A   Scattered Clouds
11:20 PM 44.6 °F 43.1 °F 37.4 °F 76% 29.89 in 6.2 mi ENE 3.5 mph - N/A   Scattered Clouds
11:50 PM 46.4 °F 42.9 °F 37.4 °F 71% 29.89 in 6.2 mi ENE 6.9 mph - N/A   Scattered Clouds